Siren, WI

12:20 AM CST on November 23, 2017 (GMT -0600)
Burnett County

Weather History for KRZN - March, 2013

Change the Weather History Date:

Monday, March 18, 2013

  Actual Average Record
Temperature  
Mean Temperature 21 °F -  
Max Temperature 28 °F - - ()
Min Temperature 14 °F - - ()
Degree Days  
Heating Degree Days 44    
Moisture  
Dew Point 16 °F    
Average Humidity 79    
Maximum Humidity 93    
Minimum Humidity 68    
Precipitation  
Precipitation 0.00 in - - ()
Sea Level Pressure  
Sea Level Pressure 29.65 in    
Wind  
Wind Speed 13 mph (SW)    
Max Wind Speed 21 mph    
Max Gust Speed 28 mph    
Visibility 6 miles    
Events Snow    
Averages and records for this station are not official NWS values.
T = Trace of Precipitation, MM = Missing Value Source: NWS Daily Summary

Daily Weather History Graph

Daily Weather History Graph

Search for Another Location

Airport or City:

Trip Planner

Search our weather history database for the weather conditions in past years. The results will help you decide how hot, cold, wet, or windy it might be!

Date:

Astronomy

Mar. 18, 2013 Rise Set
Actual Time 7:15 AM CDT 7:19 PM CDT
Civil Twilight 6:46 AM CDT 7:49 PM CDT
Nautical Twilight 6:11 AM CDT 8:24 PM CDT
Astronomical Twilight 5:35 AM CDT 9:00 PM CDT
Moon 10:58 AM CDT (3/18) 1:36 AM CDT (3/18)
Length of Visible Light 13h 03m
Length of Day
12h 03m
Waxing Crescent, 41% of the Moon is Illuminated
Mar 18
Waxing Crescent
Mar 19
First Quarter
Mar 27
Full
Apr 2
Last Quarter
Apr 10
New

Hourly Weather History & Observations

Time (CDT) Temp. Windchill Dew Point Humidity Pressure Visibility Wind Dir Wind Speed Gust Speed Precip Events Conditions
12:15 AM 23.0 °F 12.4 °F 14.0 °F 68% 29.90 in 10.0 mi South 10.4 mph 16.1 mph N/A   Scattered Clouds
12:35 AM 23.0 °F 12.4 °F 14.0 °F 68% 29.90 in 10.0 mi South 10.4 mph - N/A   Mostly Cloudy
12:55 AM 23.0 °F 12.4 °F 14.0 °F 68% 29.89 in 10.0 mi South 10.4 mph 16.1 mph N/A   Overcast
1:15 AM 23.0 °F 11.7 °F 14.0 °F 68% 29.88 in 10.0 mi South 11.5 mph 17.3 mph N/A   Overcast
1:55 AM 23.0 °F 11.7 °F 14.0 °F 68% 29.83 in 10.0 mi SSE 11.5 mph 19.6 mph N/A   Overcast
2:15 AM 23.0 °F 12.4 °F 14.0 °F 68% 29.81 in 10.0 mi SSE 10.4 mph 20.7 mph N/A   Overcast
2:35 AM 23.0 °F 11.1 °F 14.0 °F 68% 29.80 in 10.0 mi SSE 12.7 mph 18.4 mph N/A   Overcast
2:55 AM 23.0 °F 11.1 °F 14.0 °F 68% 29.78 in 10.0 mi SSE 12.7 mph 21.9 mph N/A   Overcast
3:15 AM 23.0 °F 12.4 °F 15.8 °F 74% 29.78 in 10.0 mi South 10.4 mph 19.6 mph N/A   Overcast
3:35 AM 23.0 °F 11.7 °F 17.6 °F 80% 29.77 in 10.0 mi South 11.5 mph 19.6 mph N/A   Overcast
3:55 AM 23.0 °F 8.3 °F 17.6 °F 80% 29.73 in 10.0 mi SSE 19.6 mph 27.6 mph N/A   Overcast
4:15 AM 23.0 °F 10.6 °F 17.6 °F 80% 29.73 in 10.0 mi South 13.8 mph 21.9 mph N/A   Overcast
4:35 AM 23.0 °F 11.1 °F 17.6 °F 80% 29.74 in 10.0 mi South 12.7 mph 18.4 mph N/A   Overcast
4:55 AM 23.0 °F 10.6 °F 17.6 °F 80% 29.73 in 10.0 mi South 13.8 mph 21.9 mph N/A   Overcast
5:15 AM 23.0 °F 11.1 °F 17.6 °F 80% 29.71 in 10.0 mi South 12.7 mph - N/A Snow Light Snow
5:35 AM 23.0 °F 10.6 °F 19.4 °F 86% 29.70 in 2.0 mi South 13.8 mph 19.6 mph N/A Snow Light Snow
5:55 AM 23.0 °F 13.1 °F 19.4 °F 86% 29.70 in 1.8 mi South 9.2 mph 17.3 mph N/A Snow Light Snow
6:15 AM 23.0 °F 11.7 °F 19.4 °F 86% 29.69 in 1.0 mi South 11.5 mph 18.4 mph N/A Snow Snow
6:35 AM 23.0 °F 13.1 °F 21.2 °F 93% 29.68 in 1.2 mi South 9.2 mph 16.1 mph N/A Snow Light Snow
6:55 AM 23.0 °F 11.7 °F 19.4 °F 86% 29.68 in 1.8 mi South 11.5 mph - N/A Snow Light Snow
7:15 AM 23.0 °F 11.1 °F 19.4 °F 86% 29.67 in 1.8 mi South 12.7 mph - N/A Snow Light Snow
7:35 AM 23.0 °F 11.1 °F 19.4 °F 86% 29.65 in 1.8 mi South 12.7 mph 17.3 mph N/A Snow Light Snow
7:55 AM 23.0 °F 10.6 °F 19.4 °F 86% 29.64 in 4.0 mi South 13.8 mph 19.6 mph N/A Snow Light Snow
8:15 AM 23.0 °F 13.1 °F 19.4 °F 86% 29.63 in 7.0 mi South 9.2 mph 19.6 mph N/A Snow Light Snow
8:35 AM 23.0 °F 11.7 °F 19.4 °F 86% 29.62 in 1.8 mi South 11.5 mph 18.4 mph N/A Snow Light Snow
8:55 AM 24.8 °F 13.4 °F 21.2 °F 86% 29.61 in 0.8 mi South 12.7 mph 18.4 mph N/A Snow Light Snow
9:15 AM 23.0 °F 11.1 °F 21.2 °F 93% 29.61 in 0.5 mi South 12.7 mph 17.3 mph N/A Snow Snow
9:35 AM 24.8 °F 13.4 °F 21.2 °F 86% 29.61 in 0.5 mi South 12.7 mph - N/A Snow Snow
9:55 AM 24.8 °F 11.9 °F 21.2 °F 86% 29.60 in 0.8 mi South 16.1 mph 21.9 mph N/A Snow Light Snow
10:15 AM 24.8 °F 13.4 °F 21.2 °F 86% 29.59 in 0.8 mi South 12.7 mph 18.4 mph N/A Snow Light Snow
10:35 AM 26.6 °F 15.7 °F 23.0 °F 86% 29.58 in 0.8 mi South 12.7 mph - N/A Snow Light Snow
10:55 AM 26.6 °F 16.2 °F 23.0 °F 86% 29.58 in 0.8 mi South 11.5 mph 16.1 mph N/A Snow Light Snow
11:15 AM 26.6 °F 15.7 °F 23.0 °F 86% 29.57 in 0.8 mi South 12.7 mph 17.3 mph N/A Snow Light Snow
11:35 AM 26.6 °F 15.7 °F 23.0 °F 86% 29.56 in 0.8 mi South 12.7 mph - N/A Snow Light Snow
11:55 AM 26.6 °F 16.8 °F 23.0 °F 86% 29.56 in 1.2 mi SSW 10.4 mph - N/A Snow Light Snow
12:15 PM 28.4 °F 18.0 °F 23.0 °F 80% 29.56 in 1.8 mi South 12.7 mph - N/A Snow Light Snow
12:35 PM 28.4 °F 19.7 °F 23.0 °F 80% 29.56 in 7.0 mi SSW 9.2 mph - N/A   Overcast
12:55 PM 28.4 °F 19.7 °F 23.0 °F 80% 29.55 in 7.0 mi SW 9.2 mph - N/A   Overcast
1:15 PM 28.4 °F 17.5 °F 23.0 °F 80% 29.56 in 3.0 mi West 13.8 mph 19.6 mph N/A Snow Light Snow
1:35 PM 23.0 °F 9.2 °F 21.2 °F 93% 29.57 in 2.5 mi WNW 17.3 mph 21.9 mph N/A   Overcast
1:55 PM 23.0 °F 9.2 °F 17.6 °F 80% 29.56 in 10.0 mi West 17.3 mph 20.7 mph N/A   Overcast
2:15 PM 23.0 °F 8.7 °F 17.6 °F 80% 29.56 in 10.0 mi West 18.4 mph 24.2 mph N/A   Overcast
2:35 PM 23.0 °F 8.7 °F 15.8 °F 74% 29.56 in 10.0 mi West 18.4 mph 24.2 mph N/A   Overcast
2:55 PM 23.0 °F 8.3 °F 15.8 °F 74% 29.56 in 10.0 mi West 19.6 mph - N/A   Overcast
3:15 PM 23.0 °F 10.6 °F 14.0 °F 68% 29.56 in 5.0 mi West 13.8 mph 24.2 mph N/A   Haze
3:35 PM 21.2 °F 6.8 °F 15.8 °F 80% 29.56 in 3.0 mi West 17.3 mph 21.9 mph N/A Snow Light Snow
3:55 PM 21.2 °F 7.3 °F 14.0 °F 74% 29.56 in 3.0 mi West 16.1 mph 20.7 mph N/A Snow Light Snow
4:15 PM 21.2 °F 7.3 °F 12.2 °F 68% 29.57 in 10.0 mi WNW 16.1 mph 23.0 mph N/A   Overcast
4:35 PM 19.4 °F 5.0 °F 12.2 °F 74% 29.58 in 10.0 mi West 16.1 mph 23.0 mph N/A   Overcast
4:55 PM 19.4 °F 6.0 °F 12.2 °F 74% 29.58 in 7.0 mi West 13.8 mph 23.0 mph N/A Snow Light Snow
5:15 PM 19.4 °F 5.0 °F 10.4 °F 68% 29.59 in 10.0 mi West 16.1 mph 20.7 mph N/A Snow Light Snow
5:35 PM 19.4 °F 7.9 °F 12.2 °F 74% 29.59 in 1.5 mi West 10.4 mph - N/A Snow Light Snow
5:55 PM 19.4 °F 6.0 °F 12.2 °F 74% 29.59 in 7.0 mi West 13.8 mph 19.6 mph N/A Snow Light Snow
6:15 PM 19.4 °F 9.5 °F 12.2 °F 74% 29.59 in 7.0 mi West 8.1 mph - N/A Snow Light Snow
6:35 PM 19.4 °F 7.2 °F 12.2 °F 74% 29.60 in 5.0 mi WNW 11.5 mph - N/A Snow Light Snow
6:55 PM 19.4 °F 5.0 °F 12.2 °F 74% 29.60 in 5.0 mi West 16.1 mph - N/A Snow Light Snow
7:15 PM 19.4 °F 7.9 °F 12.2 °F 74% 29.61 in 4.0 mi West 10.4 mph 17.3 mph N/A Snow Light Snow
7:35 PM 19.4 °F 7.9 °F 14.0 °F 80% 29.61 in 4.0 mi West 10.4 mph - N/A Snow Light Snow
7:55 PM 19.4 °F 7.9 °F 14.0 °F 80% 29.61 in 5.0 mi West 10.4 mph - N/A Snow Light Snow
8:15 PM 19.4 °F 7.9 °F 14.0 °F 80% 29.61 in 4.0 mi West 10.4 mph - N/A Snow Light Snow
8:35 PM 19.4 °F 6.6 °F 14.0 °F 80% 29.62 in 5.0 mi West 12.7 mph - N/A Snow Light Snow
8:55 PM 19.4 °F 7.9 °F 14.0 °F 80% 29.62 in 7.0 mi WNW 10.4 mph - N/A Snow Light Snow
9:15 PM 19.4 °F 6.0 °F 12.2 °F 74% 29.63 in 7.0 mi WNW 13.8 mph 20.7 mph N/A Snow Light Snow
9:35 PM 19.4 °F 4.1 °F 12.2 °F 74% 29.63 in 10.0 mi WNW 18.4 mph 23.0 mph N/A Snow Light Snow
9:55 PM 17.6 °F 0.9 °F 12.2 °F 79% 29.64 in 10.0 mi NW 20.7 mph 25.3 mph N/A   Overcast
10:15 PM 17.6 °F 3.2 °F 10.4 °F 73% 29.66 in 10.0 mi NW 15.0 mph 25.3 mph N/A   Overcast
10:35 PM 17.6 °F 2.2 °F 8.6 °F 68% 29.67 in 10.0 mi WNW 17.3 mph 27.6 mph N/A   Overcast
10:55 PM 15.8 °F -0.2 °F 8.6 °F 73% 29.68 in 10.0 mi NW 17.3 mph 24.2 mph N/A   Overcast
11:15 PM 15.8 °F -0.6 °F 8.6 °F 73% 29.68 in 10.0 mi WNW 18.4 mph 26.5 mph N/A   Overcast
11:35 PM 14.0 °F -1.4 °F 8.6 °F 79% 29.68 in 10.0 mi WNW 15.0 mph 24.2 mph N/A   Overcast
11:55 PM 14.0 °F -2.0 °F 8.6 °F 79% 29.69 in 10.0 mi NW 16.1 mph 20.7 mph N/A   Overcast